Temp
60 60 61 61 61 61 61 61 61 61 61 62 62 62 62 62 62 55 48 57 61 66 64 55 55 55 56 56 57 55 45 40 41 44 44 47 46 48 47 45 45 49 46 48 51
59 59 60 60 60 60 61 61 61 61 61 61 61 62 61 61 54 50 60 65 66 66 57 55 56 56 52 53 52 48 42 42 43 41 42 44 43 41 41 41 41 42 48 51 49
58 59 59 59 59 60 60 60 60 60 61 61 61 61 61 57 48 50 64 65 65 63 55 55 55 55 49 49 48 44 41 44 43 44 45 43 40 41 40 39 42 42 45 47 46
57 58 58 58 59 60 60 60 60 60 60 61 61 61 60 51 40 51 64 63 64 59 56 54 53 48 44 44 46 43 45 45 47 46 44 40 44 42 41 43 49 48 48 47 47
57 57 57 57 58 59 59 60 60 60 60 60 61 61 52 46 45 57 61 57 56 55 51 51 49 45 43 43 45 42 42 44 44 44 41 44 41 41 42 47 47 49 51 48 47
56 56 56 57 58 58 59 59 60 60 60 60 62 61 48 41 55 56 52 53 52 52 49 49 45 46 44 41 41 41 43 41 42 42 42 40 39 40 44 47 46 49 48 48 48
56 56 56 57 57 58 58 59 59 60 60 61 62 57 48 45 52 52 52 50 52 50 49 48 47 47 43 40 42 43 38 39 39 41 40 39 39 39 41 45 47 47 46 47 48
56 56 56 56 57 57 58 59 59 59 60 61 62 50 41 53 51 53 51 51 52 53 52 51 51 46 43 42 42 37 36 33 38 41 41 40 40 43 43 43 44 44 43 45 47
56 55 56 56 57 57 58 59 59 60 62 62 50 47 40 57 50 50 49 48 50 51 52 57 48 41 41 36 34 33 30 30 36 38 38 37 37 42 43 42 42 42 43 44 45
56 56 56 56 57 57 57 59 59 58 56 58 54 46 48 45 48 50 49 49 47 48 49 47 39 35 32 34 33 31 29 32 31 35 35 33 37 43 45 43 41 41 41 42 44
56 56 56 56 57 57 49 48 47 47 45 39 40 40 44 48 49 50 50 48 48 45 38 39 36 31 28 29 31 33 28 27 32 35 34 31 33 42 42 40 41 41 41 40 43
55 56 56 56 57 55 43 39 37 39 38 43 44 45 47 45 43 48 50 45 44 37 38 37 32 33 36 35 34 32 29 29 33 34 32 30 33 41 38 37 38 40 39 41 41
55 55 55 56 56 46 40 39 44 41 38 40 43 42 43 46 39 42 45 42 39 35 32 35 34 38 36 34 35 29 29 27 29 32 29 28 33 37 38 38 40 39 41 42 43
55 55 55 55 50 41 38 44 44 42 25 36 39 42 44 42 39 46 45 41 38 34 32 32 34 35 34 33 33 32 32 32 31 29 27 28 28 36 35 38 40 41 39 41 43
55 55 55 52 42 41 41 43 43 41 21 37 39 47 44 40 38 42 44 42 35 34 34 31 31 32 33 33 34 32 32 30 30 25 23 24 24 33 33 39 40 41 41 41 42
55 54 53 46 41 41 43 42 41 29 23 29 37 36 37 37 37 41 40 43 39 35 34 31 34 32 32 34 34 34 30 30 26 24 17 22 23 31 35 38 37 39 41 42 42
54 54 49 46 40 41 40 39 29 25 32 29 28 34 33 33 35 36 35 32 31 26 24 30 30 31 34 31 32 32 27 20 19 15 21 23 23 35 37 40 41 42 43 42 41
54 53 47 45 41 40 38 31 23 22 20 33 32 31 30 30 32 33 31 26 30 29 19 23 24 29 33 30 29 28 27 21 16 17 22 27 24 37 39 40 40 42 42 41 41
52 42 41 42 43 39 34 20 27 26 34 33 33 26 19 29 28 29 27 25 31 30 28 21 27 30 32 30 30 27 21 26 18 13 14 24 29 38 39 38 39 41 39 41 41
41 39 40 43 41 37 27 31 26 36 36 35 32 31 19 17 25 26 22 29 30 30 24 28 23 28 30 30 29 29 31 22 18 14 11 24 25 33 38 37 36 38 39 40 41
44 37 40 42 40 29 23 23 26 35 36 35 34 24 26 22 22 16 24 28 30 27 28 17 24 24 26 21 26 25 22 20 20 21 18 15 25 35 37 38 39 39 40 40 40
40 33 40 39 27 16 20 25 36 34 33 33 33 35 31 27 21 19 24 29 33 31 29 27 20 19 22 25 27 26 27 26 19 17 15 19 23 39 37 38 37 39 40 38 39
36 35 42 40 29 26 23 27 32 32 33 30 31 34 33 30 26 26 27 31 32 31 25 26 19 13 21 21 23 17 26 28 24 22 14 15 29 37 35 34 37 37 39 39 39
36 32 33 34 33 34 31 32 31 32 33 33 31 32 32 30 29 22 30 32 33 33 40 35 20 20 22 22 18 14 14 23 20 12 20 23 36 44 47 45 41 38 38 38 38
37 33 34 27 29 32 35 36 32 29 27 32 30 31 28 21 27 28 29 28 30 36 31 27 18 16 18 22 17 18 14 19 22 29 24 38 32 41 46 41 39 38 37 37 37
35 33 32 33 33 33 35 38 38 34 28 26 27 32 30 27 31 31 29 28 29 28 28 23 15 13 14 22 22 20 21 20 27 29 30 32 32 45 48 48 46 44 39 37 37
42 38 37 35 31 32 35 37 38 36 34 36 35 36 32 34 36 34 34 34 33 29 27 21 15 12 13 21 20 18 24 24 30 28 33 28 37 46 42 41 40 38 36 39 39
MSLP
1021.66 1021.37 1021.25 1021.11 1020.89 1020.65 1020.49 1020.19 1019.93 1019.64 1019.39 1018.92 1018.56 1018.47 1018.19 1018.03 1017.70 1017.59 1018.21 1018.39 1017.48 1016.61 1016.10 1015.99 1015.98 1015.93 1016.03 1016.16 1016.22 1016.37 1017.74 1019.08 1019.30 1019.50 1019.43 1019.60 1019.58 1019.60 1019.72 1019.93 1020.06 1020.09 1020.23 1020.33 1020.55
1021.87 1021.55 1021.43 1021.31 1020.92 1020.59 1020.24 1020.13 1020.05 1019.71 1019.50 1019.17 1018.85 1018.65 1018.38 1018.25 1018.10 1018.22 1018.17 1017.61 1016.99 1016.49 1016.06 1015.93 1015.93 1016.00 1016.57 1016.90 1017.21 1017.74 1019.01 1019.55 1019.86 1019.77 1019.87 1020.03 1020.22 1020.35 1020.32 1020.38 1020.66 1020.60 1020.34 1020.34 1020.51
1022.05 1021.96 1021.62 1021.43 1020.97 1020.60 1020.18 1020.07 1019.85 1019.65 1019.52 1019.22 1018.91 1018.75 1018.69 1018.42 1018.46 1018.14 1017.80 1017.41 1016.82 1016.37 1016.33 1015.91 1015.90 1016.33 1017.31 1017.89 1018.64 1019.08 1019.68 1019.98 1020.26 1020.27 1020.42 1020.54 1020.53 1020.63 1020.51 1020.51 1020.37 1020.53 1020.58 1020.55 1020.53
1022.62 1022.40 1021.78 1021.68 1021.09 1020.57 1020.20 1019.97 1019.79 1019.65 1019.44 1019.19 1018.91 1018.82 1018.72 1018.56 1019.08 1018.33 1017.91 1017.37 1016.61 1016.05 1016.05 1016.11 1016.34 1017.17 1018.36 1019.03 1019.39 1019.63 1020.28 1020.33 1020.34 1020.59 1020.82 1020.86 1020.96 1020.69 1020.50 1020.01 1019.75 1020.08 1020.16 1020.41 1020.59
1023.06 1022.42 1022.12 1021.80 1021.07 1020.55 1020.15 1019.85 1019.75 1019.49 1019.35 1019.12 1018.80 1018.62 1018.91 1018.94 1019.25 1018.54 1018.20 1017.66 1016.73 1016.36 1017.04 1017.06 1017.20 1018.09 1019.06 1019.56 1019.65 1020.22 1020.60 1020.76 1020.76 1020.86 1020.81 1020.89 1020.91 1020.78 1020.33 1019.82 1019.83 1020.07 1020.20 1020.23 1020.18
1023.03 1022.66 1022.15 1021.68 1021.05 1020.58 1020.33 1019.90 1019.70 1019.50 1019.28 1019.09 1018.84 1018.73 1018.92 1019.23 1019.17 1018.92 1018.65 1018.06 1017.77 1017.32 1017.80 1017.84 1018.16 1018.26 1019.35 1019.99 1020.11 1020.57 1020.52 1020.84 1020.85 1021.11 1021.04 1021.29 1021.23 1020.91 1019.46 1019.63 1019.96 1020.09 1020.15 1020.19 1020.28
1023.10 1022.65 1022.08 1021.48 1020.85 1020.58 1020.15 1019.68 1019.47 1019.21 1019.08 1018.84 1018.82 1018.78 1019.24 1019.61 1019.22 1019.12 1018.94 1018.45 1018.43 1018.15 1018.21 1018.49 1018.33 1018.58 1019.56 1020.30 1020.57 1020.82 1021.13 1021.14 1021.10 1021.20 1021.26 1021.36 1021.11 1020.27 1019.49 1019.63 1020.05 1020.22 1020.27 1020.27 1020.10
1023.21 1022.63 1022.11 1021.51 1020.98 1020.31 1019.84 1019.33 1019.03 1018.62 1018.85 1018.70 1018.73 1018.79 1019.47 1019.41 1019.27 1019.27 1019.09 1018.71 1018.45 1018.17 1018.25 1018.45 1018.48 1019.18 1020.08 1020.66 1021.04 1021.29 1021.30 1021.50 1021.40 1021.61 1021.53 1021.50 1020.39 1019.43 1019.58 1020.12 1020.41 1020.57 1020.60 1020.36 1019.95
1023.14 1022.55 1021.96 1021.35 1020.79 1019.88 1019.50 1018.89 1018.72 1018.56 1018.67 1018.47 1018.84 1018.74 1019.60 1019.30 1019.50 1019.68 1019.60 1019.72 1019.10 1018.57 1018.42 1018.41 1018.90 1020.72 1021.21 1021.62 1022.16 1022.47 1022.28 1022.24 1022.03 1022.24 1022.14 1021.84 1020.87 1019.77 1019.81 1020.30 1020.55 1020.49 1020.48 1020.22 1020.01
1023.04 1022.58 1022.00 1021.34 1020.69 1019.98 1019.33 1018.92 1018.70 1018.62 1018.86 1018.87 1019.13 1019.84 1019.71 1020.97 1020.55 1020.32 1019.81 1019.69 1019.47 1018.97 1018.92 1019.32 1020.38 1021.54 1022.71 1022.68 1023.10 1022.78 1022.61 1022.56 1022.87 1023.00 1022.82 1022.46 1020.96 1020.13 1020.04 1020.43 1020.33 1020.31 1020.14 1020.10 1019.78
1023.28 1022.78 1022.29 1021.65 1020.87 1020.18 1019.49 1019.31 1020.02 1020.46 1020.73 1021.58 1021.80 1021.84 1021.31 1021.21 1020.76 1020.34 1020.21 1019.93 1019.52 1019.74 1020.72 1020.99 1021.88 1022.93 1023.71 1023.55 1023.16 1022.82 1023.10 1023.35 1023.05 1023.66 1023.51 1022.51 1021.62 1019.05 1019.30 1019.40 1019.34 1019.52 1019.50 1019.49 1019.19
1023.34 1022.84 1022.27 1021.50 1020.84 1020.45 1020.54 1021.77 1022.91 1023.33 1022.76 1022.38 1022.03 1021.95 1021.70 1021.82 1021.26 1020.75 1020.53 1020.63 1020.34 1021.20 1021.66 1022.00 1023.13 1023.89 1023.93 1023.74 1023.54 1023.65 1023.72 1023.76 1023.59 1023.87 1024.22 1023.03 1021.39 1018.56 1018.33 1018.15 1018.11 1018.31 1018.67 1018.75 1018.79
1023.20 1022.66 1022.09 1021.44 1020.79 1021.39 1022.43 1023.29 1023.32 1023.26 1023.10 1022.65 1022.16 1022.06 1022.16 1022.11 1022.24 1021.68 1021.57 1021.61 1021.53 1022.12 1022.90 1023.03 1024.11 1024.03 1024.14 1024.17 1023.94 1024.28 1024.50 1024.80 1025.17 1024.64 1024.60 1023.77 1020.85 1018.45 1017.65 1017.66 1017.34 1017.55 1017.83 1018.17 1018.27
1023.21 1022.76 1022.11 1021.24 1021.29 1022.63 1023.46 1023.78 1023.65 1023.33 1023.64 1022.92 1022.31 1022.21 1022.21 1021.92 1022.23 1021.86 1021.95 1022.24 1022.34 1022.99 1023.71 1024.34 1024.53 1024.38 1024.59 1024.48 1024.71 1025.13 1025.38 1025.51 1025.88 1025.84 1025.59 1024.45 1022.29 1018.90 1017.57 1017.32 1017.00 1017.06 1017.45 1017.65 1018.00
1023.31 1022.94 1022.54 1022.06 1022.63 1023.25 1024.13 1023.86 1023.68 1023.33 1023.81 1023.34 1022.42 1021.98 1021.96 1022.32 1022.42 1021.90 1021.94 1021.96 1022.97 1023.65 1024.05 1024.96 1025.01 1025.03 1024.96 1025.08 1025.13 1025.72 1025.95 1026.15 1026.26 1026.54 1026.44 1024.86 1023.91 1018.58 1017.64 1016.80 1016.40 1016.51 1017.00 1017.35 1017.56
1023.38 1023.15 1022.77 1022.86 1023.35 1023.98 1023.80 1023.71 1023.96 1024.38 1024.42 1023.64 1023.01 1022.59 1022.56 1022.49 1022.49 1022.28 1022.06 1022.21 1023.20 1023.86 1024.61 1025.39 1025.48 1025.43 1025.42 1025.44 1025.69 1025.93 1026.40 1026.53 1027.05 1026.87 1026.41 1024.72 1023.80 1019.37 1017.39 1016.08 1015.78 1015.85 1016.32 1016.66 1017.17
1023.36 1023.29 1023.39 1023.60 1023.86 1023.93 1024.03 1024.33 1025.20 1024.84 1024.76 1024.17 1023.43 1023.11 1023.06 1023.09 1022.86 1022.70 1022.76 1023.17 1023.72 1024.65 1025.97 1025.89 1025.85 1025.91 1025.88 1026.00 1026.24 1026.23 1026.49 1027.39 1027.77 1027.56 1026.19 1024.82 1023.80 1018.28 1016.29 1015.73 1015.56 1015.50 1015.83 1016.08 1016.57
1023.36 1023.39 1023.50 1023.68 1023.95 1023.87 1024.18 1024.87 1025.62 1024.58 1024.19 1023.71 1023.57 1023.71 1024.00 1024.05 1023.78 1023.57 1023.66 1024.08 1024.28 1024.70 1026.43 1026.62 1026.59 1026.54 1026.56 1026.53 1026.59 1026.79 1027.18 1027.68 1028.33 1028.42 1026.66 1024.90 1022.20 1016.97 1015.58 1015.07 1015.35 1015.62 1015.84 1016.15 1016.57
1023.30 1023.66 1023.74 1023.55 1023.64 1024.01 1024.43 1025.91 1024.38 1023.78 1023.14 1023.42 1023.71 1024.06 1024.81 1024.82 1024.98 1024.66 1024.48 1024.31 1023.90 1024.16 1025.31 1026.54 1026.79 1026.94 1027.01 1027.05 1027.28 1027.69 1027.94 1028.03 1028.44 1029.07 1027.77 1023.84 1020.70 1016.72 1015.20 1015.06 1015.40 1015.61 1016.15 1016.52 1016.71
1023.53 1023.96 1023.54 1023.24 1023.42 1024.04 1025.40 1025.33 1024.24 1023.15 1022.84 1022.88 1023.29 1023.77 1025.39 1025.58 1025.80 1025.67 1025.12 1024.41 1024.66 1025.10 1025.51 1026.02 1026.95 1027.56 1027.53 1027.47 1027.68 1027.47 1028.09 1028.65 1029.29 1029.56 1027.91 1023.82 1021.46 1017.67 1015.56 1015.23 1015.47 1015.86 1016.09 1016.24 1016.55
1023.41 1024.14 1023.35 1023.31 1023.43 1024.24 1025.73 1025.15 1023.71 1022.69 1022.45 1022.67 1022.67 1023.46 1024.47 1025.22 1025.83 1026.36 1025.86 1024.95 1024.85 1025.68 1025.96 1026.55 1026.99 1028.65 1028.37 1027.99 1027.69 1028.49 1028.42 1028.86 1029.03 1028.72 1027.72 1025.31 1020.04 1016.31 1015.64 1015.35 1015.49 1015.60 1015.72 1015.90 1016.17
1022.79 1023.90 1023.37 1023.65 1024.40 1024.72 1025.02 1023.82 1023.17 1022.74 1022.52 1022.40 1022.54 1022.83 1023.52 1024.25 1025.59 1025.95 1025.37 1024.63 1024.65 1025.23 1026.28 1026.39 1026.98 1028.05 1027.72 1027.78 1027.89 1027.90 1028.01 1027.99 1028.50 1028.57 1027.35 1025.46 1018.60 1015.26 1015.05 1015.14 1015.32 1015.44 1015.58 1015.63 1016.04
1022.06 1022.36 1023.08 1023.25 1023.50 1023.99 1023.63 1023.15 1022.77 1022.57 1022.39 1022.40 1022.36 1022.48 1023.04 1023.76 1024.74 1024.47 1024.31 1024.05 1024.23 1024.88 1025.59 1026.30 1027.30 1028.11 1028.42 1028.98 1028.79 1028.60 1028.10 1027.89 1027.74 1027.37 1026.19 1024.56 1017.39 1015.09 1014.61 1014.69 1015.00 1015.47 1015.42 1015.34 1015.49
1021.35 1021.38 1022.62 1023.22 1021.66 1021.45 1022.34 1022.19 1022.00 1021.74 1021.58 1021.69 1022.02 1022.24 1022.85 1023.34 1023.72 1024.09 1023.97 1023.84 1024.15 1024.26 1024.62 1025.57 1027.46 1028.32 1027.90 1027.66 1027.69 1028.37 1027.79 1027.52 1027.24 1026.71 1023.92 1020.50 1016.23 1014.19 1013.55 1013.98 1014.26 1014.74 1015.07 1014.98 1014.96
1019.41 1019.14 1018.91 1021.10 1020.68 1020.59 1019.97 1019.54 1020.12 1020.92 1021.40 1021.38 1021.81 1021.46 1021.59 1022.90 1023.24 1023.44 1023.45 1024.02 1024.27 1024.43 1025.07 1025.74 1027.48 1027.76 1027.45 1027.37 1027.60 1027.10 1026.61 1026.53 1026.03 1023.67 1022.29 1017.44 1016.47 1013.09 1012.02 1013.02 1013.20 1013.67 1014.16 1014.48 1014.30
1017.44 1018.19 1018.71 1018.30 1018.17 1018.72 1018.58 1016.89 1017.87 1018.82 1019.62 1019.93 1019.91 1019.86 1020.42 1020.50 1020.21 1020.99 1022.05 1023.19 1022.99 1024.58 1025.53 1026.27 1027.09 1027.92 1027.72 1027.04 1026.81 1026.24 1025.19 1024.98 1023.76 1022.76 1020.75 1017.62 1015.46 1012.51 1011.10 1012.22 1012.31 1012.81 1013.46 1013.81 1013.65
1016.19 1016.66 1016.90 1016.37 1017.17 1016.82 1015.15 1014.95 1015.27 1016.99 1017.19 1017.55 1017.69 1018.97 1019.38 1018.02 1019.47 1019.95 1020.63 1021.12 1021.40 1022.64 1024.64 1026.02 1026.98 1028.12 1027.84 1026.78 1026.19 1024.73 1021.49 1021.38 1020.78 1019.98 1018.27 1017.08 1012.75 1010.76 1011.44 1011.86 1011.97 1012.23 1012.74 1012.77 1012.73
Wind_Speed
16 16 15 15 14 14 13 12 11 13 14 14 14 13 9 10 9 6 6 7 11 20 15 2 1 2 0 3 6 2 5 3 4 6 2 2 3 3 2 3 3 3 3 1 1
15 15 15 14 14 14 14 13 13 13 14 12 12 10 5 7 4 5 5 18 19 18 6 4 4 2 5 4 5 6 4 4 2 2 2 2 1 3 1 2 1 1 3 4 3
16 15 15 15 15 14 14 14 13 13 13 12 10 8 5 3 2 4 16 21 19 14 4 1 2 3 6 5 6 3 3 4 1 2 1 1 1 2 3 4 5 5 4 3 2
15 15 15 15 15 15 14 14 14 12 12 12 10 7 4 3 2 4 19 24 19 8 2 3 6 6 5 5 4 7 3 2 3 1 1 1 4 5 3 5 5 8 5 4 4
14 15 15 15 15 15 15 15 13 12 11 11 11 8 1 5 3 7 18 18 7 5 7 4 5 4 6 5 3 4 3 3 3 2 2 1 4 5 7 8 4 5 6 5 4
15 16 16 17 17 16 16 14 13 11 10 8 8 6 0 3 4 8 10 9 6 7 6 7 3 3 7 4 4 2 5 4 0 3 0 2 3 2 5 6 5 5 6 6 6
16 17 18 18 18 18 17 15 13 11 9 8 7 3 6 3 3 8 8 3 5 3 5 3 1 5 4 5 3 5 4 2 1 4 2 1 5 9 3 6 7 6 6 7 8
16 18 18 19 19 18 19 16 12 8 10 7 3 3 2 3 2 4 8 4 7 4 3 2 6 8 6 3 7 4 4 1 1 7 1 1 9 3 5 7 9 8 8 7 7
17 19 20 21 21 20 21 14 7 7 6 4 2 3 1 5 6 6 5 5 8 2 5 3 7 5 6 5 5 7 2 2 5 3 4 2 8 4 4 8 10 9 9 8 8
17 18 20 21 21 20 18 4 5 5 6 1 3 4 7 6 5 6 4 4 3 3 4 8 7 5 5 6 4 4 2 3 5 5 5 4 19 13 10 8 11 10 9 9 8
17 19 20 21 21 20 7 4 7 5 12 5 3 3 4 9 3 5 5 6 2 9 5 5 8 3 3 0 1 5 2 2 3 1 5 4 11 24 10 11 14 13 13 10 11
17 18 20 21 17 15 5 7 3 0 4 1 1 2 1 3 5 6 9 3 5 4 4 6 3 3 1 2 2 2 1 3 6 1 3 6 18 16 6 7 8 12 12 11 6
17 19 20 21 5 7 6 4 2 2 4 2 2 2 4 4 2 7 7 3 5 5 5 5 2 1 0 4 2 2 1 2 3 8 1 8 10 5 3 3 4 6 7 7 10
16 18 21 21 6 1 5 5 4 2 8 5 2 2 2 1 3 2 3 1 6 5 3 6 1 2 2 3 2 1 2 2 4 7 4 5 8 9 4 9 5 5 7 8 9
13 15 17 13 1 4 1 4 4 3 6 2 3 1 4 1 1 3 1 4 3 4 3 2 2 2 2 1 1 2 1 1 2 2 4 1 2 12 4 6 6 7 8 9 9
10 14 13 5 4 2 3 3 4 10 8 2 3 1 1 3 2 4 2 6 4 4 6 3 1 1 2 2 2 2 2 3 3 2 3 1 4 9 5 5 3 3 8 9 9
7 9 5 1 1 2 1 3 8 6 4 5 2 2 1 2 2 3 2 2 4 6 2 3 1 1 1 3 2 2 5 4 7 5 6 0 1 15 4 6 5 4 7 9 8
4 5 3 1 1 1 3 8 4 3 7 1 2 2 2 2 1 0 3 1 2 5 5 5 6 1 3 2 2 2 4 6 6 3 5 3 9 9 6 5 7 6 6 5 7
3 2 2 3 1 2 7 5 10 8 5 8 2 5 6 4 1 3 3 5 7 9 10 6 4 1 2 1 1 3 1 1 6 2 3 5 9 13 7 11 8 9 5 8 8
2 2 4 3 4 5 7 7 6 4 5 3 7 4 6 4 1 3 1 4 3 1 4 5 2 1 2 2 2 3 5 4 4 2 6 6 6 10 5 3 2 6 9 9 8
3 1 1 1 3 6 6 10 7 6 3 5 7 4 5 6 6 4 6 5 3 3 5 4 5 1 3 5 8 3 2 3 3 5 6 4 9 9 7 4 8 9 10 9 9
4 3 1 1 4 1 5 9 3 4 1 3 1 4 8 7 6 3 7 7 6 8 6 5 6 4 7 1 1 1 3 5 6 7 3 3 14 4 7 7 5 9 7 6 7
4 3 1 2 6 4 2 4 4 6 6 6 8 7 4 7 0 6 5 0 8 7 6 5 2 3 8 5 5 3 5 3 4 3 8 6 11 1 3 4 7 9 9 9 8
3 5 2 2 1 5 6 5 6 5 4 6 4 5 4 5 3 5 5 4 6 6 6 7 2 7 9 7 5 4 4 6 6 4 5 11 22 21 21 15 9 9 10 10 9
5 6 7 7 7 7 8 12 10 8 4 6 3 8 10 6 5 6 4 3 1 6 4 7 7 4 5 4 2 5 5 9 14 13 10 22 17 25 23 9 9 7 7 8 9
6 5 0 2 5 21 14 19 21 6 14 10 8 15 12 11 13 15 10 6 8 4 7 1 3 4 5 2 6 8 7 12 20 13 19 27 31 31 30 23 22 17 9 10 10
2 2 4 10 7 12 17 23 20 10 9 8 21 11 14 24 3 2 1 2 8 14 11 8 7 4 8 3 3 13 16 24 16 9 18 19 30 28 20 14 11 10 9 13 13
Wind_Direction
32 28 25 16 12 8 4 353 344 345 345 342 339 336 332 339 343 23 49 315 321 321 322 256 130 126 159 57 38 84 64 137 175 146 210 342 26 34 302 96 46 5 140 194 348
26 23 17 9 8 1 1 354 340 336 340 346 343 345 341 340 20 31 329 339 332 331 339 36 64 88 51 30 25 66 89 185 180 137 176 312 301 329 38 44 91 316 315 324 10
17 13 10 2 0 357 356 351 342 335 333 340 346 359 353 331 337 329 341 337 333 332 229 191 108 66 62 30 2 23 133 161 186 182 160 205 263 296 148 229 205 187 205 211 224
10 5 5 355 354 352 350 346 340 330 328 334 334 333 346 39 63 305 336 336 335 332 129 44 35 54 71 76 342 87 42 152 161 31 157 162 317 302 198 237 175 199 192 177 218
2 0 357 351 350 349 345 343 336 326 323 327 328 305 92 48 327 302 333 330 348 27 41 35 65 110 113 111 97 87 156 95 89 77 136 285 242 239 250 241 227 219 200 223 249
357 354 351 348 348 345 338 338 327 320 317 323 337 116 70 68 319 332 333 337 4 38 24 32 88 120 98 79 73 110 110 126 332 15 263 341 270 0 259 198 220 216 228 250 259
352 350 348 346 344 338 334 333 323 318 313 321 338 121 60 175 352 327 345 320 344 19 78 19 136 81 147 93 149 124 76 347 248 348 291 32 258 233 241 162 203 230 243 264 255
348 348 345 343 339 336 329 326 317 322 313 308 348 88 117 299 295 358 341 334 359 9 79 88 82 100 53 123 33 48 59 62 65 360 278 262 271 318 190 167 221 236 249 260 265
347 346 343 342 338 336 330 324 325 321 335 341 16 81 30 331 25 322 33 340 307 344 41 77 64 81 27 65 38 13 227 277 317 54 311 49 274 275 170 194 229 237 241 247 267
347 343 342 342 339 336 330 321 21 39 356 64 67 27 21 323 312 330 325 352 14 329 23 40 50 73 37 52 223 213 191 241 262 337 352 279 269 254 249 228 236 235 238 247 250
345 341 340 340 338 345 2 26 23 348 42 108 277 292 324 298 255 359 357 336 40 51 40 8 64 103 149 321 105 102 99 275 262 43 332 235 276 279 240 231 236 228 235 242 235
343 342 340 337 340 360 55 72 69 298 79 29 276 319 291 338 341 342 1 55 58 76 333 29 85 189 265 345 103 68 150 276 275 159 7 342 289 282 257 236 223 222 222 226 224
341 342 342 338 11 34 59 75 7 306 101 360 44 360 306 14 63 315 13 354 76 60 8 127 114 122 73 34 97 49 33 5 289 325 231 316 290 318 280 257 246 238 219 207 211
339 343 345 337 51 324 48 349 358 290 73 293 322 348 306 77 20 281 359 68 33 134 88 85 338 76 76 84 44 323 77 61 335 16 287 15 281 302 323 301 263 248 217 220 219
334 343 348 25 155 55 321 350 1 25 31 216 292 346 317 104 345 9 313 27 84 105 102 193 120 109 106 98 38 151 27 58 87 73 349 8 48 270 341 286 265 242 230 228 226
330 343 352 22 43 56 346 19 49 44 258 297 278 268 165 21 6 309 54 47 138 90 45 106 199 62 113 63 84 149 128 65 52 72 13 235 135 279 219 216 234 228 229 225 223
316 343 12 3 187 334 37 67 36 136 344 272 214 13 54 1 23 36 50 67 150 77 312 10 184 98 93 146 159 118 62 330 350 6 227 348 221 246 270 241 228 213 235 226 219
275 336 340 139 310 103 81 49 103 234 222 237 121 94 192 354 240 183 117 213 222 95 95 140 321 40 357 49 140 94 144 157 226 245 278 297 239 255 218 234 253 276 264 218 207
28 346 279 205 162 74 72 60 211 205 164 153 107 77 312 360 88 359 229 216 193 177 154 129 256 160 81 76 78 153 139 155 98 62 36 239 289 293 251 262 261 234 236 248 240
114 360 245 157 127 74 77 232 219 201 139 155 176 159 197 240 131 147 159 221 199 296 26 222 71 345 71 133 77 160 155 74 4 337 294 279 276 247 294 275 250 237 238 239 236
113 341 166 84 83 55 173 225 241 221 169 169 199 161 202 187 168 207 227 291 153 111 68 124 108 267 49 207 173 142 174 61 113 157 195 297 254 218 234 242 239 242 241 233 232
143 200 356 24 73 121 169 192 196 194 147 216 187 193 185 162 179 237 220 210 169 151 173 202 145 182 215 118 20 332 218 173 132 231 227 152 267 262 230 245 239 259 268 258 243
213 181 46 134 202 212 271 248 223 168 203 175 208 200 177 182 223 191 205 207 149 149 160 209 296 28 340 359 2 214 199 200 87 77 204 152 259 170 240 263 255 250 261 257 257
135 184 124 245 141 200 153 219 226 210 189 176 175 107 134 210 234 206 234 186 178 172 137 120 116 178 192 205 134 200 221 189 145 149 185 224 276 263 269 272 266 245 252 260 258
173 242 168 193 214 210 179 176 187 195 239 181 209 210 172 183 163 219 195 132 139 206 137 136 198 165 242 209 175 213 183 185 208 217 205 267 239 265 266 257 241 237 252 257 264
185 153 181 190 165 188 203 219 220 194 154 226 212 194 192 183 185 199 155 186 194 151 159 192 206 121 291 4 211 265 197 210 222 234 257 258 275 265 278 280 273 275 262 266 263
223 46 176 173 180 182 209 212 215 176 220 204 204 174 206 222 103 23 54 204 159 157 173 154 136 107 262 10 355 286 212 209 220 197 226 242 243 271 277 267 260 255 229 248 258